Weather History for Ardmore Downtown, OK

Change the Weather History Date:

Monday, January 7, 2013

  Actual Average (KADM) Record (KADM)
Temperature  
Mean Temperature 37 °F -  
Max Temperature 51 °F 50 °F 77 °F (2006)
Min Temperature 23 °F 32 °F 11 °F (2014)
Degree Days  
Heating Degree Days 28    
Moisture  
Dew Point 27 °F    
Average Humidity 68    
Maximum Humidity 93    
Minimum Humidity 41    
Precipitation  
Precipitation 0.00 in - - ()
Sea Level Pressure  
Sea Level Pressure 30.24 in    
Wind  
Wind Speed 2 mph (SSE)    
Max Wind Speed 10 mph    
Max Gust Speed -    
Visibility 10 miles    
Events      
Averages and records for this station are not official NWS values.
T = Trace of Precipitation, MM = Missing Value Source: NWS Daily Summary

Daily Weather History Graph

Daily Weather History Graph

Search for Another Location

Airport:

Trip Planner

Search our weather history database for the weather conditions in past years. The results will help you decide how hot, cold, wet, or windy it might be!

Date:

Astronomy

Jan. 07, 2013 Rise Set
Actual Time 7:34 AM CST 5:35 PM CST
Civil Twilight 7:07 AM CST 6:02 PM CST
Nautical Twilight 6:36 AM CST 6:33 PM CST
Astronomical Twilight 6:06 AM CST 7:04 PM CST
Moon 3:03 AM CST (1/7) 1:44 PM CST (1/7)
Length of Visible Light 10h 55m
Length of Day
10h 00m
Waning Crescent, 22% of the Moon is Illuminated
Jan 7
Waning Crescent
Jan 11
New
Jan 18
First Quarter
Jan 26
Full
Feb 3
Last Quarter

Hourly Weather History & Observations

Time (CST) Temp. Windchill Dew Point Humidity Pressure Visibility Wind Dir Wind Speed Gust Speed Precip Events Conditions
12:15 AM 30.2 °F - 23.0 °F 75% 30.34 in 10.0 mi Calm Calm - N/A   Clear
12:35 AM 30.2 °F - 23.0 °F 75% 30.34 in 10.0 mi Calm Calm - N/A   Clear
12:55 AM 30.2 °F - 23.0 °F 75% 30.33 in 10.0 mi Calm Calm - N/A   Clear
1:15 AM 28.4 °F - 23.0 °F 80% 30.33 in 10.0 mi Calm Calm - N/A   Clear
1:35 AM 28.4 °F - 23.0 °F 80% 30.32 in 10.0 mi Calm Calm - N/A   Clear
1:55 AM 28.4 °F - 23.0 °F 80% 30.31 in 10.0 mi Calm Calm - N/A   Clear
2:15 AM 26.6 °F - 21.2 °F 80% 30.30 in 10.0 mi Calm Calm - N/A   Clear
2:35 AM 28.4 °F - 23.0 °F 80% 30.30 in 10.0 mi Calm Calm - N/A   Clear
2:55 AM 28.4 °F - 21.2 °F 74% 30.30 in 10.0 mi Calm Calm - N/A   Clear
3:15 AM 28.4 °F - 21.2 °F 74% 30.31 in 10.0 mi Calm Calm - N/A   Clear
3:35 AM 26.6 °F - 21.2 °F 80% 30.31 in 10.0 mi Calm Calm - N/A   Clear
3:55 AM 26.6 °F - 23.0 °F 86% 30.31 in 10.0 mi Calm Calm - N/A   Clear
4:15 AM 24.8 °F - 21.2 °F 86% 30.30 in 10.0 mi Calm Calm - N/A   Clear
4:35 AM 26.6 °F - 21.2 °F 80% 30.30 in 10.0 mi Calm Calm - N/A   Clear
4:55 AM 26.6 °F - 21.2 °F 80% 30.30 in 10.0 mi Calm Calm - N/A   Clear
5:15 AM 26.6 °F - 21.2 °F 80% 30.30 in 10.0 mi Calm Calm - N/A   Clear
5:35 AM 24.8 °F - 21.2 °F 86% 30.30 in 10.0 mi Calm Calm - N/A   Clear
5:55 AM 24.8 °F - 21.2 °F 86% 30.30 in 10.0 mi Calm Calm - N/A   Clear
6:15 AM 24.8 °F - 21.2 °F 86% 30.30 in 10.0 mi Calm Calm - N/A   Clear
6:35 AM 24.8 °F - 21.2 °F 86% 30.30 in 10.0 mi Calm Calm - N/A   Clear
6:55 AM 23.0 °F - 21.2 °F 93% 30.30 in 10.0 mi Calm Calm - N/A   Clear
7:15 AM 23.0 °F - 21.2 °F 93% 30.31 in 10.0 mi Calm Calm - N/A   Clear
7:35 AM 24.8 °F - 21.2 °F 86% 30.31 in 10.0 mi Calm Calm - N/A   Clear
7:55 AM 26.6 °F - 21.2 °F 80% 30.31 in 10.0 mi Calm Calm - N/A   Clear
8:15 AM 28.4 °F - 24.8 °F 86% 30.31 in 10.0 mi Calm Calm - N/A   Clear
8:35 AM 30.2 °F - 24.8 °F 80% 30.31 in 10.0 mi Calm Calm - N/A   Clear
8:55 AM 32.0 °F - 26.6 °F 80% 30.32 in 10.0 mi Calm Calm - N/A   Clear
9:15 AM 32.0 °F - 26.6 °F 80% 30.32 in 10.0 mi Calm Calm - N/A   Clear
9:35 AM 35.6 °F 31.7 °F 28.4 °F 75% 30.32 in 10.0 mi SE 4.6 mph - N/A   Clear
9:55 AM 35.6 °F 32.8 °F 30.2 °F 81% 30.33 in 10.0 mi South 3.5 mph - N/A   Clear
10:15 AM 37.4 °F - 28.4 °F 70% 30.33 in 10.0 mi Calm Calm - N/A   Clear
10:35 AM 39.2 °F 35.9 °F 30.2 °F 70% 30.33 in 10.0 mi South 4.6 mph - N/A   Clear
10:55 AM 41.0 °F 37.1 °F 28.4 °F 61% 30.31 in 10.0 mi SSE 5.8 mph - N/A   Clear
11:15 AM 44.6 °F 40.7 °F 26.6 °F 49% 30.30 in 10.0 mi South 6.9 mph - N/A   Clear
11:35 AM 44.6 °F 40.7 °F 26.6 °F 49% 30.30 in 10.0 mi South 6.9 mph - N/A   Clear
11:55 AM 44.6 °F 39.7 °F 26.6 °F 49% 30.28 in 10.0 mi South 9.2 mph - N/A   Clear
12:15 PM 46.4 °F 42.4 °F 26.6 °F 46% 30.26 in 10.0 mi South 8.1 mph - N/A   Clear
12:35 PM 50.0 °F - 28.4 °F 43% 30.25 in 10.0 mi SSE 8.1 mph - N/A   Clear
12:55 PM 50.0 °F - 28.4 °F 43% 30.22 in 10.0 mi SSE 10.4 mph - N/A   Clear
1:15 PM 51.8 °F - 28.4 °F 41% 30.22 in 10.0 mi South 8.1 mph - N/A   Clear
1:35 PM 51.8 °F - 28.4 °F 41% 30.20 in 10.0 mi South 8.1 mph - N/A   Clear
1:55 PM 51.8 °F - 28.4 °F 41% 30.18 in 10.0 mi SSE 9.2 mph - N/A   Clear
2:15 PM 51.8 °F - 28.4 °F 41% 30.17 in 10.0 mi SSE 10.4 mph - N/A   Clear
2:35 PM 51.8 °F - 28.4 °F 41% 30.16 in 10.0 mi SSE 8.1 mph - N/A   Clear
2:55 PM 51.8 °F - 30.2 °F 44% 30.17 in 10.0 mi South 10.4 mph - N/A   Clear
3:15 PM 51.8 °F - 30.2 °F 44% 30.17 in 10.0 mi South 10.4 mph - N/A   Clear
3:35 PM 50.0 °F - 30.2 °F 47% 30.17 in 10.0 mi South 9.2 mph - N/A   Clear
3:55 PM 50.0 °F - 30.2 °F 47% 30.17 in 10.0 mi South 6.9 mph - N/A   Clear
4:15 PM 50.0 °F - 30.2 °F 47% 30.17 in 10.0 mi South 8.1 mph - N/A   Clear
4:35 PM 50.0 °F - 32.0 °F 50% 30.15 in 10.0 mi SSE 4.6 mph - N/A   Clear
4:55 PM 50.0 °F - 32.0 °F 50% 30.16 in 10.0 mi South 4.6 mph - N/A   Clear
5:15 PM 46.4 °F 44.3 °F 32.0 °F 57% 30.16 in 10.0 mi South 4.6 mph - N/A   Clear
5:35 PM 46.4 °F 45.2 °F 32.0 °F 57% 30.15 in 10.0 mi SSE 3.5 mph - N/A   Clear
6:15 PM 44.6 °F - 32.0 °F 61% 30.15 in 10.0 mi Calm Calm - N/A   Clear
6:35 PM 44.6 °F - 32.0 °F 61% 30.16 in 10.0 mi Calm Calm - N/A   Clear
6:55 PM 44.6 °F - 32.0 °F 61% 30.16 in 10.0 mi Calm Calm - N/A   Clear
7:15 PM 44.6 °F - 32.0 °F 61% 30.15 in 10.0 mi Calm Calm - N/A   Clear
7:35 PM 41.0 °F - 32.0 °F 70% 30.16 in 10.0 mi Calm Calm - N/A   Clear
7:55 PM 41.0 °F - 32.0 °F 70% 30.15 in 10.0 mi Calm Calm - N/A   Clear
8:15 PM 41.0 °F - 32.0 °F 70% 30.15 in 10.0 mi Calm Calm - N/A   Clear
8:35 PM 41.0 °F - 32.0 °F 70% 30.14 in 10.0 mi Calm Calm - N/A   Clear
8:55 PM 41.0 °F - 32.0 °F 70% 30.13 in 10.0 mi Calm Calm - N/A   Clear
9:15 PM 41.0 °F - 32.0 °F 70% 30.13 in 10.0 mi Calm Calm - N/A   Clear
9:35 PM 41.0 °F - 32.0 °F 70% 30.13 in 10.0 mi Calm Calm - N/A   Clear
9:55 PM 39.2 °F - 32.0 °F 75% 30.12 in 10.0 mi Calm Calm - N/A   Clear
10:15 PM 39.2 °F - 32.0 °F 75% 30.11 in 10.0 mi Calm Calm - N/A   Clear
10:35 PM 39.2 °F - 32.0 °F 75% 30.12 in 10.0 mi Calm Calm - N/A   Clear
10:55 PM 39.2 °F - 32.0 °F 75% 30.12 in 10.0 mi Calm Calm - N/A   Clear
11:15 PM 39.2 °F - 32.0 °F 75% 30.12 in 10.0 mi Calm Calm - N/A   Scattered Clouds
11:35 PM 37.4 °F - 32.0 °F 81% 30.11 in 10.0 mi Calm Calm - N/A   Clear
11:55 PM 37.4 °F - 32.0 °F 81% 30.10 in 10.0 mi Calm Calm - N/A   Scattered Clouds